Flag for Aruba Weather past 2 weeks in Oranjestad, Aruba

Now
91 °F

Passing clouds.


Feels Like: 105 °F
Forecast: 80 / 90 °F
Wind: 23 mph from East

Location: Queen Beatrix Airport - Aruba

Current Time: Apr 27, 2015 at 3:43:49 PM

Latest Report: Apr 27, 2015 at 3:00 PM


Visibility: N/A

Pressure: 29.74 "Hg

Humidity: 63%

Dew point: 77 °F

Location of OranjestadLocation

Historic Weather in Oranjestad — Graph

°F

Oranjestad temperature yesterday

Maximum temperature yesterday: 91 °F (at 1:00 PM)
Minimum temperature yesterday: 81 °F (at 1:00 AM)
Average temperature yesterday: 84 °F

Past Weeks' High & Low Weather Summary

 TemperatureHumidityPressure
High91 °F (Apr 26, 1:00 PM)89% (Apr 25, 8:00 PM)30.24 "Hg (Apr 25, 8:00 PM)
Low79 °F (Apr 15, 2:00 AM)59% (Apr 22, 12:00 PM)29.74 "Hg (Apr 26, 4:00 PM)
Average83 °F75%29.88 "Hg
* Reported Apr 12 2:00 PM — Apr 27 2:00 PM, Oranjestad, Weather by CustomWeather, © 2015

Note: Actual official high and low records may vary slightly from our data, if they occured in-between our weather recording intervals... More about our weather records

Advertising

Oranjestad weather history for previous 24 hours

 ConditionsComfort  
Time TempWeatherWind HumidityBarometerVisibility
2:00 PM
Mon, Apr 27
91 °FPassing clouds.24 mph67%29.77 "HgN/A
1:00 PM91 °FPassing clouds.23 mph67%29.77 "HgN/A
12:00 PM90 °FPassing clouds.24 mph67%29.80 "HgN/A
11:00 AM90 °FPassing clouds.20 mph67%29.83 "HgN/A
10:00 AM88 °FPassing clouds.25 mph70%29.83 "HgN/A
9:00 AM86 °FPassing clouds.24 mph70%29.83 "HgN/A
8:00 AM82 °FPassing clouds.21 mph79%29.80 "HgN/A
7:00 AM81 °FPassing clouds.13 mph84%29.80 "HgN/A
6:00 AM81 °FPassing clouds.17 mph84%29.80 "HgN/A
5:00 AM81 °FPassing clouds.15 mph84%29.80 "HgN/A
4:00 AM81 °FPassing clouds.22 mph84%29.80 "HgN/A
3:00 AM81 °FPassing clouds.14 mph84%29.80 "HgN/A
2:00 AM81 °FPassing clouds.14 mph84%29.80 "HgN/A
1:00 AM81 °FPassing clouds.14 mph89%29.83 "HgN/A
12:00 AM81 °FPassing clouds.14 mph89%29.83 "HgN/A
11:00 PM
Sun, Apr 26
81 °FPassing clouds.10 mph89%29.83 "HgN/A
10:00 PM82 °FPassing clouds.18 mph84%29.80 "HgN/A
9:00 PM82 °FPassing clouds.17 mph84%29.80 "HgN/A
8:00 PM82 °FPassing clouds.21 mph84%29.77 "HgN/A
7:00 PM82 °FPassing clouds.22 mph84%29.77 "HgN/A
6:00 PM84 °FPassing clouds.21 mph79%29.74 "HgN/A
5:00 PM86 °FPassing clouds.24 mph75%29.74 "HgN/A
4:00 PM88 °FPassing clouds.24 mph70%29.74 "HgN/A
3:00 PM90 °FPassing clouds.24 mph71%29.77 "HgN/A
Weather by CustomWeather, © 2015

See weather overviewHow to use our weather pages